Weather History for Bloomington, IN

Change the Weather History Date:

Friday, November 1, 2013

  Actual Average Record
Temperature  
Mean Temperature 54 °F 50 °F  
Max Temperature 61 °F 61 °F 77 °F (1999)
Min Temperature 47 °F 38 °F 26 °F (2014)
Degree Days  
Heating Degree Days 11 15  
Month to date heating degree days 11 15  
Since 1 July heating degree days 415 434  
Cooling Degree Days 0 0  
Month to date cooling degree days 0 0  
Year to date cooling degree days 1006 926  
Growing Degree Days 4 (Base 50)    
Moisture  
Dew Point 46 °F    
Average Humidity 70    
Maximum Humidity 86    
Minimum Humidity 53    
Precipitation  
Precipitation T in 0.16 in 0.46 in (2004)
Month to date precipitation T 0.16  
Year to date precipitation 38.67 40.23  
Sea Level Pressure  
Sea Level Pressure 29.65 in    
Wind  
Wind Speed 9 mph (West)    
Max Wind Speed 16 mph    
Max Gust Speed 25 mph    
Visibility 10 miles    
Events Rain    
T = Trace of Precipitation, MM = Missing Value Source: NWS Daily Summary

Daily Weather History Graph

Daily Weather History Graph

Search for Another Location

Airport:

Trip Planner

Search our weather history database for the weather conditions in past years. The results will help you decide how hot, cold, wet, or windy it might be!

Date:

Astronomy

Nov. 01, 2013 Rise Set
Actual Time 8:14 AM EDT 6:45 PM EDT
Civil Twilight 7:46 AM EDT 7:12 PM EDT
Nautical Twilight 7:14 AM EDT 7:44 PM EDT
Astronomical Twilight 6:43 AM EDT 8:15 PM EDT
Moon 6:06 AM EDT (11/1) 5:37 PM EDT (11/1)
Length of Visible Light 11h 26m
Length of Day
10h 30m
Waning Crescent, 4% of the Moon is Illuminated
Nov 1
Waning Crescent
Nov 3
New
Nov 10
First Quarter
Nov 17
Full
Nov 25
Last Quarter

Hourly Weather History & Observations

Time (EDT) Temp. Dew Point Humidity Pressure Visibility Wind Dir Wind Speed Gust Speed Precip Events Conditions
12:01 AM 57.0 °F 55.0 °F 93% 29.46 in 8.0 mi WNW 5.8 mph - 0.00 in Rain Light Rain
12:53 AM 54.0 °F 51.1 °F 90% 29.50 in 8.0 mi West 12.7 mph 20.7 mph 0.01 in Rain Light Rain
1:14 AM 53.1 °F 51.1 °F 93% 29.53 in 10.0 mi WNW 9.2 mph 16.1 mph 0.00 in   Overcast
1:21 AM 53.1 °F 51.1 °F 93% 29.54 in 10.0 mi West 9.2 mph - 0.00 in   Overcast
1:24 AM 53.1 °F 51.1 °F 93% 29.54 in 10.0 mi West 12.7 mph - 0.00 in   Overcast
1:37 AM 53.1 °F 50.0 °F 89% 29.54 in 10.0 mi WNW 8.1 mph 18.4 mph 0.00 in   Overcast
1:53 AM 53.1 °F 50.0 °F 89% 29.55 in 10.0 mi WNW 10.4 mph 24.2 mph 0.00 in   Mostly Cloudy
2:07 AM 52.0 °F 48.9 °F 89% 29.57 in 10.0 mi West 10.4 mph 20.7 mph N/A   Mostly Cloudy
2:53 AM 50.0 °F 46.9 °F 89% 29.58 in 10.0 mi West 9.2 mph 19.6 mph N/A   Mostly Cloudy
3:00 AM 50.0 °F 46.9 °F 89% 29.60 in 10.0 mi West 10.4 mph 16.1 mph N/A   Scattered Clouds
3:08 AM 50.0 °F 46.9 °F 89% 29.60 in 10.0 mi West 8.1 mph 16.1 mph N/A   Mostly Cloudy
3:53 AM 48.9 °F 45.0 °F 86% 29.62 in 10.0 mi West 9.2 mph 19.6 mph N/A   Scattered Clouds
4:06 AM 48.9 °F 45.0 °F 86% 29.63 in 10.0 mi West 8.1 mph - N/A   Mostly Cloudy
4:19 AM 48.9 °F 45.0 °F 86% 29.64 in 10.0 mi West 5.8 mph - N/A   Mostly Cloudy
4:49 AM 48.2 °F 44.6 °F 87% 29.64 in 10.0 mi WSW 6.9 mph - N/A   Overcast
4:53 AM 48.0 °F 45.0 °F 89% 29.63 in 10.0 mi WSW 4.6 mph - N/A   Overcast
5:53 AM 48.0 °F 44.1 °F 86% 29.65 in 10.0 mi WSW 10.4 mph 17.3 mph N/A   Overcast
6:53 AM 48.0 °F 45.0 °F 89% 29.67 in 10.0 mi SW 10.4 mph 17.3 mph N/A   Mostly Cloudy
7:53 AM 48.0 °F 45.0 °F 89% 29.66 in 10.0 mi WSW 8.1 mph 18.4 mph N/A   Mostly Cloudy
8:07 AM 46.9 °F 45.0 °F 93% 29.66 in 10.0 mi SW 8.1 mph - N/A   Scattered Clouds
8:53 AM 48.0 °F 45.0 °F 89% 29.67 in 10.0 mi SW 6.9 mph - N/A   Partly Cloudy
9:20 AM 48.9 °F 46.0 °F 90% 29.69 in 10.0 mi SW 6.9 mph - N/A   Mostly Cloudy
9:50 AM 50.0 °F 46.4 °F 87% 29.70 in 10.0 mi WSW 10.4 mph - N/A   Mostly Cloudy
9:53 AM 50.0 °F 46.0 °F 86% 29.70 in 10.0 mi SW 15.0 mph 20.7 mph N/A   Mostly Cloudy
10:11 AM 50.0 °F 46.0 °F 86% 29.70 in 10.0 mi WSW 10.4 mph 18.4 mph N/A   Overcast
10:53 AM 51.1 °F 46.9 °F 86% 29.70 in 10.0 mi SW 8.1 mph 19.6 mph N/A   Overcast
11:33 AM 53.1 °F 46.0 °F 77% 29.70 in 10.0 mi WSW 11.5 mph 18.4 mph N/A   Mostly Cloudy
11:48 AM 53.6 °F 46.4 °F 77% 29.70 in 10.0 mi WSW 9.2 mph - N/A   Scattered Clouds
11:53 AM 55.0 °F 46.0 °F 72% 29.69 in 10.0 mi WSW 11.5 mph - N/A   Partly Cloudy
12:53 PM 57.0 °F 45.0 °F 64% 29.69 in 10.0 mi SW 11.5 mph 19.6 mph N/A   Clear
1:53 PM 61.0 °F 44.1 °F 54% 29.67 in 10.0 mi West 10.4 mph 19.6 mph N/A   Scattered Clouds
2:53 PM 59.0 °F 42.1 °F 53% 29.67 in 10.0 mi West 15.0 mph 21.9 mph N/A   Partly Cloudy
3:53 PM 59.0 °F 43.0 °F 55% 29.67 in 10.0 mi West 9.2 mph - N/A   Mostly Cloudy
4:53 PM 57.9 °F 42.1 °F 56% 29.68 in 10.0 mi West 11.5 mph 19.6 mph N/A   Mostly Cloudy
5:53 PM 57.0 °F 42.1 °F 57% 29.70 in 10.0 mi West 6.9 mph - N/A   Overcast
6:53 PM 55.0 °F 42.1 °F 62% 29.72 in 10.0 mi Variable 6.9 mph - N/A   Mostly Cloudy
7:53 PM 54.0 °F 42.1 °F 64% 29.75 in 10.0 mi WNW 5.8 mph - N/A   Overcast
8:53 PM 53.1 °F 41.0 °F 64% 29.76 in 10.0 mi WNW 4.6 mph - N/A   Overcast
9:53 PM 52.0 °F 39.9 °F 63% 29.77 in 10.0 mi WNW 3.5 mph - N/A   Overcast
10:53 PM 51.1 °F 39.9 °F 66% 29.80 in 10.0 mi Variable 5.8 mph - N/A   Overcast
11:53 PM 50.0 °F 39.9 °F 68% 29.80 in 10.0 mi Variable 5.8 mph - N/A   Overcast